Acapulco, Mexico

6:45 PM CDT on June 25, 2017 (GMT -0500)
Gen Juan N Alvarez International | | Change Station

Elev 13 ft 16.76 °N, 99.75 °W | Updated 1 hour ago

Mostly Cloudy
Mostly Cloudy
86 °F
Feels Like 95 °F
N
113
Wind Variable Wind from ESE

Today
High -- | Low -- °F
--% Chance of Precip.
Yesterday
High -- | Low -- °F
Precip. -- in
Pressure 29.87 in
Visibility 10.0 miles
Clouds Few 1500 ft
Scattered Clouds 12000 ft
Mostly Cloudy 30000 ft
Heat Index 95 °F
Dew Point 75 °F
Humidity 70%
Rainfall 2.05 in
Snow Depth Not available.
7:07 AM 8:15 PM
Waxing Crescent, 5% visible
METAR MMAA 252242Z 11998KT 10SM FEW015TCU SCT120 BKN300 30/24 A2987 RMK 8/232 DSNT CB ENE LWR CLDS 2ND AND 3TH QUAD
Pressure 29.87 in
Visibility 10.0 miles
Clouds Few 1500 ft
Scattered Clouds 12000 ft
Mostly Cloudy 30000 ft
Heat Index 95 °F
Dew Point 75 °F
Humidity 70%
Rainfall 2.05 in
Snow Depth Not available.
7:07 AM 8:15 PM
Waxing Crescent, 5% visible
METAR MMAA 252242Z 11998KT 10SM FEW015TCU SCT120 BKN300 30/24 A2987 RMK 8/232 DSNT CB ENE LWR CLDS 2ND AND 3TH QUAD

Get Severe Weather Alerts

Thanks for signing up!

Be on the lookout for a verification email in your inbox.

You'll start receiving the daily forecast at 6 AM.

×

10-Day Weather Forecast

No radar image for this location.
×

Almanac

Astronomy

Jun. 25, 2017 Rise Set
Actual Time
Civil Twilight
Nautical Twilight
Astronomical Twilight
Moon
Length of Visible Light
Length of Day
Tomorrow will be .
, % of the Moon is Illuminated

Today's Extremes

Country Highs Country Lows

Community

WunderPhotos

Category 6

Welcome to Category 6. This is the collective home for Weather Underground's featured writeups by Dr. Jeff Masters (right), Bob Henson (left), Chris Burt, and other regular contributors.

Nearby

Air Quality

  Air Quality AQ Index Pollutant
Not available.

Snow Depth

Station Depth Elevation

Earthquake Activity

City Distance Mag. Time & Date
Minimum magnitude displayed is 2.5.

Coastal Water Temperatures

Place Temperature

Stations

Nearby Weather Stations

Station Location Temp. Windchill Dew Point Humidity Wind Precip. Elev Updated Type